When you browse on this site, cookies collect data to enhance your experience and personalize the content and advertising you see.
Visit our Privacy Policy to learn more. By continuing to use the site, you agree to this use of cookies and data.
  • In Hungary
  • List of Countries
  • For 7 days
  • Water Temperature
  • Satellite Maps
  • Weather Map
  • News
  • Weather Widgets
  • user-avatar
    Login

    Hourly Weather Kanpur

    Today, 17 July, Wednesday

    Time Temperature Precipitation Wind Pressure Humidity
    00:00 +32°C° 0 mm 2 mps 738 mmHg 67%
    01:00 +32°C° 0 mm 2 mps 738 mmHg 68%
    02:00 +32°C° 0 mm 2 mps 737 mmHg 69%
    03:00 +32°C° 0 mm 2 mps 738 mmHg 70%
    04:00 +32°C° 0 mm 2 mps 738 mmHg 71%
    05:00 +31°C° 0 mm 2 mps 739 mmHg 67%
    06:00 +32°C° 0 mm 2 mps 739 mmHg 64%
    07:00 +32°C° 0 mm 2 mps 739 mmHg 62%
    08:00 +34°C° 0 mm 2 mps 739 mmHg 60%
    09:00 +36°C° 0 mm 2 mps 739 mmHg 54%
    10:00 +36°C° 0 mm 1 mps 739 mmHg 49%
    11:00 +39°C° 0 mm 1 mps 740 mmHg 43%
    12:00 +39°C° 0 mm 1 mps 739 mmHg 41%
    13:00 +40°C° 0 mm 2 mps 738 mmHg 39%
    14:00 +40°C° 0 mm 2 mps 737 mmHg 37%
    15:00 +40°C° 0 mm 2 mps 737 mmHg 37%
    16:00 +40°C° 0 mm 2 mps 737 mmHg 36%
    17:00 +40°C° 0 mm 2 mps 737 mmHg 36%
    18:00 +39°C° 0 mm 2 mps 737 mmHg 38%
    19:00 +39°C° 0 mm 1 mps 737 mmHg 40%
    20:00 +37°C° 0 mm 1 mps 737 mmHg 42%
    21:00 +37°C° 0 mm 1 mps 737 mmHg 43%
    22:00 +36°C° 0 mm 1 mps 738 mmHg 44%
    23:00 +36°C° 0 mm 1 mps 738 mmHg 46%

    Tomorrow, 18 July, Thursday

    Time Temperature Precipitation Wind Pressure Humidity
    00:00 +35°C° 0.7 mm 1 mps 737 mmHg 49%
    01:00 +35°C° 0.7 mm 2 mps 737 mmHg 53%
    02:00 +35°C° 0.7 mm 2 mps 737 mmHg 57%
    03:00 +34°C° 0 mm 2 mps 737 mmHg 58%
    04:00 +33°C° 0 mm 1 mps 737 mmHg 59%
    05:00 +33°C° 0 mm 1 mps 737 mmHg 61%
    06:00 +35°C° 0 mm 2 mps 738 mmHg 56%
    07:00 +36°C° 0 mm 2 mps 738 mmHg 52%
    08:00 +37°C° 0 mm 2 mps 739 mmHg 48%
    09:00 +38°C° 0 mm 3 mps 739 mmHg 44%
    10:00 +40°C° 0 mm 3 mps 738 mmHg 41%
    11:00 +42°C° 0 mm 3 mps 738 mmHg 37%
    12:00 +42°C° 0 mm 3 mps 738 mmHg 37%
    13:00 +42°C° 0 mm 3 mps 737 mmHg 36%
    14:00 +42°C° 0 mm 3 mps 737 mmHg 36%
    15:00 +42°C° 0 mm 3 mps 736 mmHg 36%
    16:00 +42°C° 0 mm 3 mps 736 mmHg 35%
    17:00 +41°C° 0 mm 2 mps 735 mmHg 35%
    18:00 +40°C° 0 mm 2 mps 736 mmHg 38%
    19:00 +39°C° 0 mm 3 mps 736 mmHg 41%
    20:00 +38°C° 0 mm 3 mps 736 mmHg 44%
    21:00 +37°C° 0.1 mm 3 mps 737 mmHg 46%
    22:00 +37°C° 0.1 mm 3 mps 737 mmHg 48%
    23:00 +36°C° 0.1 mm 3 mps 737 mmHg 50%

    Day after tomorrow, 19 July, Friday

    Time Temperature Precipitation Wind Pressure Humidity
    00:00 +36°C° 0 mm 3 mps 737 mmHg 52%
    01:00 +36°C° 0 mm 2 mps 737 mmHg 53%
    02:00 +35°C° 0 mm 2 mps 737 mmHg 55%
    03:00 +35°C° 0 mm 2 mps 737 mmHg 55%
    04:00 +35°C° 0 mm 2 mps 737 mmHg 56%
    05:00 +34°C° 0 mm 1 mps 737 mmHg 56%
    06:00 +35°C° 0 mm 1 mps 737 mmHg 53%
    07:00 +36°C° 0 mm 1 mps 738 mmHg 49%
    08:00 +37°C° 0 mm 1 mps 738 mmHg 45%
    09:00 +39°C° 0 mm 2 mps 738 mmHg 41%
    10:00 +40°C° 0 mm 2 mps 738 mmHg 37%
    11:00 +42°C° 0 mm 2 mps 738 mmHg 34%
    12:00 +42°C° 0 mm 2 mps 738 mmHg 33%
    13:00 +42°C° 0 mm 2 mps 737 mmHg 33%
    14:00 +42°C° 0 mm 2 mps 736 mmHg 32%
    15:00 +42°C° 0 mm 2 mps 736 mmHg 32%
    16:00 +42°C° 0 mm 2 mps 736 mmHg 32%
    17:00 +42°C° 0 mm 1 mps 735 mmHg 32%
    18:00 +41°C° 0 mm 1 mps 736 mmHg 34%
    19:00 +40°C° 0 mm 1 mps 736 mmHg 36%
    20:00 +39°C° 0 mm 1 mps 736 mmHg 39%
    21:00 +39°C° 0 mm 1 mps 736 mmHg 40%
    22:00 +36°C° 0 mm 0 mps 736 mmHg 41%
    23:00 +35°C° 0 mm 0 mps 737 mmHg 43%

    20 July, Saturday

    Time Temperature Precipitation Wind Pressure Humidity
    00:00 +35°C° 0 mm 0 mps 736 mmHg 44%
    01:00 +36°C° 0 mm 1 mps 736 mmHg 46%
    02:00 +36°C° 0 mm 1 mps 736 mmHg 48%
    03:00 +36°C° 0 mm 1 mps 736 mmHg 49%
    04:00 +35°C° 0 mm 1 mps 736 mmHg 50%
    05:00 +35°C° 0 mm 1 mps 737 mmHg 50%
    06:00 +36°C° 0 mm 1 mps 737 mmHg 49%
    07:00 +37°C° 0 mm 1 mps 738 mmHg 47%
    08:00 +37°C° 0 mm 1 mps 738 mmHg 45%
    09:00 +40°C° 0 mm 1 mps 738 mmHg 41%
    10:00 +38°C° 0 mm 0 mps 738 mmHg 38%
    11:00 +39°C° 0 mm 0 mps 738 mmHg 34%
    12:00 +43°C° 0 mm 1 mps 737 mmHg 33%
    13:00 +43°C° 0 mm 2 mps 737 mmHg 32%
    14:00 +43°C° 0 mm 2 mps 736 mmHg 31%
    15:00 +43°C° 0 mm 3 mps 736 mmHg 33%
    16:00 +43°C° 0 mm 3 mps 735 mmHg 35%
    17:00 +42°C° 0 mm 3 mps 735 mmHg 38%
    18:00 +42°C° 0 mm 3 mps 735 mmHg 39%
    19:00 +40°C° 0 mm 2 mps 735 mmHg 40%
    20:00 +40°C° 0 mm 1 mps 736 mmHg 41%
    21:00 +39°C° 0 mm 1 mps 736 mmHg 43%
    22:00 +39°C° 0 mm 1 mps 736 mmHg 44%
    23:00 +39°C° 0 mm 1 mps 735 mmHg 45%

    21 July, Sunday

    Time Temperature Precipitation Wind Pressure Humidity
    00:00 +37°C° 0.1 mm 1 mps 735 mmHg 47%
    01:00 +37°C° 0.1 mm 1 mps 735 mmHg 48%
    02:00 +36°C° 0.1 mm 1 mps 735 mmHg 49%
    03:00 +36°C° 0 mm 1 mps 735 mmHg 50%
    04:00 +36°C° 0 mm 1 mps 735 mmHg 51%
    05:00 +35°C° 0 mm 1 mps 735 mmHg 52%
    06:00 +37°C° 0 mm 1 mps 735 mmHg 49%
    07:00 +39°C° 0 mm 1 mps 736 mmHg 45%
    08:00 +40°C° 0 mm 2 mps 736 mmHg 42%
    09:00 +41°C° 0 mm 2 mps 736 mmHg 39%
    10:00 +42°C° 0 mm 2 mps 736 mmHg 35%
    11:00 +45°C° 0 mm 2 mps 736 mmHg 32%
    12:00 +43°C° 0 mm 2 mps 736 mmHg 32%
    13:00 +43°C° 0 mm 2 mps 735 mmHg 33%
    14:00 +43°C° 0 mm 2 mps 734 mmHg 34%
    15:00 +43°C° 0 mm 2 mps 734 mmHg 34%
    16:00 +42°C° 0 mm 1 mps 734 mmHg 34%
    17:00 +42°C° 0 mm 1 mps 733 mmHg 34%
    18:00 +41°C° 0 mm 1 mps 734 mmHg 36%
    19:00 +41°C° 0 mm 1 mps 734 mmHg 38%
    20:00 +40°C° 0 mm 1 mps 734 mmHg 40%
    21:00 +40°C° 0 mm 1 mps 734 mmHg 41%
    22:00 +39°C° 0 mm 1 mps 734 mmHg 42%
    23:00 +39°C° 0 mm 1 mps 734 mmHg 43%

    22 July, Monday

    Time Temperature Precipitation Wind Pressure Humidity
    00:00 +39°C° 0 mm 1 mps 734 mmHg 43%
    01:00 +37°C° 0 mm 1 mps 734 mmHg 44%
    02:00 +37°C° 0 mm 1 mps 734 mmHg 44%
    03:00 +37°C° 0 mm 1 mps 734 mmHg 45%
    04:00 +37°C° 0 mm 1 mps 734 mmHg 46%
    05:00 +36°C° 0 mm 1 mps 734 mmHg 47%
    06:00 +39°C° 0 mm 2 mps 734 mmHg 43%
    07:00 +40°C° 0 mm 2 mps 735 mmHg 40%
    08:00 +42°C° 0 mm 3 mps 735 mmHg 36%
    09:00 +43°C° 0 mm 3 mps 735 mmHg 33%
    10:00 +45°C° 0 mm 3 mps 735 mmHg 30%
    11:00 +46°C° 0 mm 3 mps 735 mmHg 27%
    12:00 +46°C° 0 mm 3 mps 734 mmHg 28%
    13:00 +45°C° 0 mm 4 mps 733 mmHg 29%
    14:00 +46°C° 0 mm 5 mps 733 mmHg 30%
    15:00 +45°C° 0.1 mm 4 mps 732 mmHg 30%
    16:00 +45°C° 0.1 mm 3 mps 732 mmHg 29%
    17:00 +44°C° 0.1 mm 1 mps 731 mmHg 29%
    18:00 +43°C° 0 mm 1 mps 731 mmHg 30%
    19:00 +42°C° 0 mm 1 mps 732 mmHg 31%
    20:00 +41°C° 0 mm 1 mps 732 mmHg 32%
    21:00 +40°C° 0 mm 1 mps 732 mmHg 33%
    22:00 +40°C° 0 mm 1 mps 733 mmHg 34%
    23:00 +40°C° 0 mm 1 mps 733 mmHg 35%
    Show more